Starlink 11548

operational
NORAD ID: 62829 Int'l Des: 2025-019 Owner: SPXS Country: US Constellation: starlink
LEOCIRCULAR

关于 Starlink 11548

正在加载描述...

实时位置

正在加载3D地球...

即将过境

高度历史

Altitude vs Time

uPlot chart will show altitude changes over time

两行轨道根数

1 62829U 25019A 25349.69406711 .00127729 00000-0 98204-3 0 9995
2 62829 42.9998 91.9943 0001740 279.2851 80.7820 15.70879927 50679
Epoch: Dec 15, 2025 • Age: 24 hours

当前状态

高度 361.6 km
速度 7.69 km/s
星下点 -25.77°S, 35.69°W
发射日期 Jan 27, 2025
运行时间 0.8 years
类型 internet

技术详情

分类 Payload
质量 960.00 kg
干质量 910.00 kg
总质量 960.00 kg
长度 0.30 m
直径 4.10 m
跨度 29.00 m
形状 Box + pan
制造商 SPXS
平台类型 Starlink V2MD
阶段状态 In Orbit
所有者/国家 SPXS/US

大型星座

Loading constellations...